Time,TemperatureF,DewpointF,PressureIn,WindDirection,WindDirectionDegrees,WindSpeedMPH,WindSpeedGustMPH,Humidity,HourlyPrecipIn,Conditions,Clouds,dailyrainin,SoftwareType,DateUTC
2013-11-18 00:23:00,53.0,49.0,29.45,West,270,5.0,20.0,85,0.04,,,0.05,,2013-11-18 05:23:00,
2013-11-18 00:43:00,53.0,49.0,29.44,West,270,6.0,18.0,85,0.04,,,0.05,,2013-11-18 05:43:00,
2013-11-18 00:53:00,52.0,48.0,29.43,West,280,4.0,15.0,86,0.04,,,0.05,,2013-11-18 05:53:00,
2013-11-18 01:22:00,53.0,48.0,29.39,WSW,245,5.0,13.0,84,0.00,,,0.05,,2013-11-18 06:22:00,
2013-11-18 01:42:00,54.0,48.0,29.37,WSW,240,1.0,18.0,81,0.00,,,0.05,,2013-11-18 06:42:00,
2013-11-18 01:52:00,55.0,47.0,29.42,North,5,10.0,18.0,75,0.00,,,0.05,,2013-11-18 06:52:00,
2013-11-18 02:21:00,54.0,45.0,29.43,WNW,291,12.0,32.0,72,0.00,,,0.05,,2013-11-18 07:21:00,
2013-11-18 02:42:00,54.0,45.0,29.42,North,11,10.0,25.0,72,0.00,,,0.05,,2013-11-18 07:42:00,
2013-11-18 02:52:00,53.0,43.0,29.42,NNW,328,10.0,28.0,68,0.00,,,0.05,,2013-11-18 07:52:00,
2013-11-18 03:22:00,54.0,43.0,29.43,WNW,289,12.0,33.0,65,0.00,,,0.05,,2013-11-18 08:22:00,
2013-11-18 03:52:00,53.0,42.0,29.45,WSW,241,14.0,38.0,65,0.00,,,0.05,,2013-11-18 08:52:00,
2013-11-18 04:12:00,53.0,42.0,29.46,West,271,16.0,42.0,66,0.00,,,0.05,,2013-11-18 09:12:00,
2013-11-18 04:22:00,52.0,42.0,29.48,WNW,284,12.0,28.0,68,0.00,,,0.05,,2013-11-18 09:22:00,
2013-11-18 04:53:00,52.0,43.0,29.49,WNW,286,13.0,24.0,71,0.00,,,0.05,,2013-11-18 09:53:00,
2013-11-18 05:23:00,51.0,42.0,29.51,WNW,294,13.0,27.0,71,0.00,,,0.05,,2013-11-18 10:23:00,
2013-11-18 05:53:00,51.0,42.0,29.52,West,262,11.0,27.0,72,0.00,,,0.05,,2013-11-18 10:53:00,
2013-11-18 06:22:00,50.0,41.0,29.52,NW,311,10.0,32.0,72,0.00,,,0.05,,2013-11-18 11:22:00,
2013-11-18 06:53:00,50.0,41.0,29.53,West,279,14.0,31.0,70,0.00,,,0.05,,2013-11-18 11:53:00,
2013-11-18 07:12:00,50.0,41.0,29.54,WNW,284,12.0,33.0,70,0.00,,,0.05,,2013-11-18 12:12:00,
2013-11-18 07:22:00,50.0,40.0,29.53,West,277,10.0,18.0,69,0.00,,,0.05,,2013-11-18 12:22:00,
2013-11-18 07:42:00,50.0,40.0,29.54,NW,309,7.0,26.0,68,0.00,,,0.05,,2013-11-18 12:42:00,
2013-11-18 07:52:00,50.0,39.0,29.55,West,272,9.0,26.0,67,0.00,,,0.05,,2013-11-18 12:52:00,
2013-11-18 08:11:00,50.0,39.0,29.55,West,272,9.0,26.0,67,0.00,,,0.05,,2013-11-18 13:11:00,
2013-11-18 08:22:00,50.0,39.0,29.56,WNW,283,9.0,25.0,65,-99.99,,,-99.99,,2013-11-18 13:22:00,
2013-11-18 08:42:00,50.0,38.0,29.57,WNW,296,10.0,23.0,64,-99.99,,,-99.99,,2013-11-18 13:42:00,
2013-11-18 08:52:00,49.0,39.0,29.57,West,280,9.0,28.0,67,-99.99,,,-99.99,,2013-11-18 13:52:00,
2013-11-18 09:22:00,49.0,38.0,29.58,West,268,11.0,31.0,65,0.00,,,-99.99,,2013-11-18 14:22:00,
2013-11-18 09:52:00,50.0,38.0,29.58,WNW,286,8.0,29.0,63,0.00,,,-99.99,,2013-11-18 14:52:00,
2013-11-18 10:22:00,50.0,38.0,29.58,NW,307,16.0,28.0,62,0.00,,,-99.99,,2013-11-18 15:22:00,
2013-11-18 10:43:00,50.0,38.0,29.58,NW,314,11.0,31.0,63,0.00,,,-99.99,,2013-11-18 15:43:00,
2013-11-18 10:54:00,50.0,38.0,29.58,West,259,11.0,24.0,63,0.00,,,-99.99,,2013-11-18 15:54:00,
2013-11-18 11:23:00,50.0,38.0,29.57,West,280,6.0,34.0,62,0.00,,,-99.99,,2013-11-18 16:23:00,
2013-11-18 11:43:00,51.0,38.0,29.57,WNW,287,10.0,32.0,61,0.00,,,-99.99,,2013-11-18 16:43:00,
2013-11-18 11:53:00,50.0,38.0,29.57,West,281,10.0,40.0,62,0.00,,,-99.99,,2013-11-18 16:53:00,
2013-11-18 12:22:00,51.0,38.0,29.57,WNW,290,12.0,30.0,61,0.00,,,-99.99,,2013-11-18 17:22:00,
2013-11-18 12:43:00,50.0,37.0,29.57,NNW,331,13.0,26.0,60,0.00,,,-99.99,,2013-11-18 17:43:00,
2013-11-18 12:52:00,50.0,37.0,29.58,NNW,337,9.0,33.0,60,0.00,,,-99.99,,2013-11-18 17:52:00,
2013-11-18 13:23:00,48.0,37.0,29.59,WNW,298,13.0,29.0,65,0.00,,,-99.99,,2013-11-18 18:23:00,
2013-11-18 13:52:00,48.0,36.0,29.60,WNW,284,12.0,24.0,64,0.00,,,-99.99,,2013-11-18 18:52:00,
2013-11-18 14:22:00,48.0,36.0,29.62,NW,309,8.0,27.0,63,0.00,,,-99.99,,2013-11-18 19:22:00,
2013-11-18 14:42:00,47.0,35.0,29.62,NNW,328,12.0,26.0,64,0.00,,,-99.99,,2013-11-18 19:42:00,
2013-11-18 15:22:00,47.0,36.0,29.63,WNW,286,6.0,23.0,65,-99.99,,,-99.99,,2013-11-18 20:22:00,
2013-11-18 15:42:00,47.0,36.0,29.63,WNW,303,9.0,17.0,66,-99.99,,,-99.99,,2013-11-18 20:42:00,
2013-11-18 15:52:00,47.0,36.0,29.64,WNW,286,3.0,20.0,66,-99.99,,,-99.99,,2013-11-18 20:52:00,
2013-11-18 16:22:00,46.0,35.0,29.66,West,279,8.0,23.0,66,0.00,,,-99.99,,2013-11-18 21:22:00,
2013-11-18 16:54:00,46.0,35.0,29.66,North,355,7.0,26.0,64,0.00,,,-99.99,,2013-11-18 21:54:00,
2013-11-18 17:23:00,45.0,34.0,29.69,NNW,336,5.0,20.0,64,0.00,,,-99.99,,2013-11-18 22:23:00,
2013-11-18 17:53:00,44.0,33.0,29.70,West,279,7.0,16.0,64,0.00,,,-99.99,,2013-11-18 22:53:00,
2013-11-18 18:22:00,42.0,33.0,29.74,North,355,10.0,24.0,69,0.00,,,-99.99,,2013-11-18 23:22:00,
2013-11-18 18:42:00,41.0,31.0,29.75,NW,321,8.0,25.0,67,0.00,,,-99.99,,2013-11-18 23:42:00,
2013-11-18 18:52:00,41.0,30.0,29.75,WNW,291,10.0,22.0,64,0.00,,,-99.99,,2013-11-18 23:52:00,
2013-11-18 19:22:00,41.0,29.0,29.77,NW,310,7.0,17.0,62,0.00,,,-99.99,,2013-11-19 00:22:00,
2013-11-18 19:42:00,41.0,29.0,29.77,NW,310,12.0,27.0,62,0.00,,,-99.99,,2013-11-19 00:42:00,
2013-11-18 19:52:00,39.0,30.0,29.78,NW,315,10.0,18.0,71,0.00,,,-99.99,,2013-11-19 00:52:00,
2013-11-18 20:21:00,39.0,30.0,29.79,WNW,300,5.0,21.0,70,0.00,,,-99.99,,2013-11-19 01:21:00,
2013-11-18 20:42:00,39.0,30.0,29.80,NNW,340,9.0,22.0,69,0.00,,,-99.99,,2013-11-19 01:42:00,
2013-11-18 20:52:00,39.0,29.0,29.81,West,278,5.0,20.0,67,0.00,,,-99.99,,2013-11-19 01:52:00,
2013-11-18 21:22:00,38.0,28.0,29.82,NNW,343,8.0,22.0,66,0.00,,,-99.99,,2013-11-19 02:22:00,
2013-11-18 21:42:00,38.0,28.0,29.83,NNW,329,10.0,23.0,66,0.00,,,-99.99,,2013-11-19 02:42:00,
2013-11-18 21:52:00,38.0,28.0,29.83,North,355,11.0,23.0,68,0.00,,,-99.99,,2013-11-19 02:52:00,
2013-11-18 22:22:00,36.0,29.0,29.85,WNW,290,8.0,18.0,75,0.00,,,-99.99,,2013-11-19 03:22:00,
2013-11-18 22:54:00,37.0,28.0,29.85,WNW,300,6.0,17.0,70,0.00,,,-99.99,,2013-11-19 03:54:00,
2013-11-18 23:13:00,37.0,28.0,29.85,WNW,289,10.0,15.0,70,0.00,,,-99.99,,2013-11-19 04:13:00,
2013-11-18 23:24:00,37.0,28.0,29.85,WNW,294,8.0,18.0,69,0.00,,,-99.99,,2013-11-19 04:24:00,
2013-11-18 23:42:00,37.0,28.0,29.86,WNW,303,6.0,19.0,69,0.00,,,-99.99,,2013-11-19 04:42:00,
2013-11-18 23:52:00,37.0,28.0,29.87,NNW,333,5.0,27.0,69,0.00,,,-99.99,,2013-11-19 04:52:00,